Kos, Greece

11:45 AM EET on December 10, 2016 (GMT +0200)
Ippokratis

Weather History for LGKO - March, 2013

Change the Weather History Date:

Saturday, March 23, 2013

  Actual Average Record
Temperature  
Mean Temperature 56 °F -  
Max Temperature 60 °F 63 °F 73 °F (2008)
Min Temperature 50 °F 52 °F 39 °F (1998)
Degree Days  
Heating Degree Days 10    
Growing Degree Days 6 (Base 50)    
Moisture  
Dew Point 38 °F    
Average Humidity 52    
Maximum Humidity 77    
Minimum Humidity 42    
Precipitation  
Precipitation 0.00 in - - ()
Sea Level Pressure  
Sea Level Pressure 29.86 in    
Wind  
Wind Speed 12 mph ()    
Max Wind Speed 22 mph    
Max Gust Speed 26 mph    
Visibility 6.2 miles    
Events      
Averages and records for this station are not official NWS values.
T = Trace of Precipitation, MM = Missing Value Source: Averaged Metar Reports

Daily Weather History Graph

Daily Weather History Graph

Search for Another Location

Airport or City:

Trip Planner

Search our weather history database for the weather conditions in past years. The results will help you decide how hot, cold, wet, or windy it might be!

Date:

Astronomy

Mar. 23, 2013 Rise Set
Actual Time 6:10 AM EET 6:26 PM EET
Civil Twilight 5:45 AM EET 6:51 PM EET
Nautical Twilight 5:14 AM EET 7:22 PM EET
Astronomical Twilight 4:44 AM EET 7:53 PM EET
Moon 2:38 PM EET (3/23) 3:30 AM EET (3/23)
Length of Visible Light 13h 06m
Length of Day
12h 15m
Waxing Gibbous, 83% of the Moon is Illuminated
Mar 23
Waxing Gibbous
Mar 27
Full
Apr 3
Last Quarter
Apr 10
New
Apr 18
First Quarter

Hourly Weather History & Observations

Time (EET) Temp. Dew Point Humidity Pressure Visibility Wind Dir Wind Speed Gust Speed Precip Events Conditions
12:50 AM 53.6 °F 46.4 °F 77% 29.71 in 6.2 mi NW 8.1 mph - N/A   Partly Cloudy
1:50 AM 53.6 °F 44.6 °F 72% 29.71 in 6.2 mi WNW 9.2 mph - N/A   Partly Cloudy
2:50 AM 53.6 °F 42.8 °F 67% 29.71 in 6.2 mi WNW 12.7 mph - N/A   Partly Cloudy
4:50 AM 55.4 °F 37.4 °F 51% 29.74 in 6.2 mi NW 15.0 mph - N/A   Partly Cloudy
5:20 AM 55.4 °F 37.4 °F 51% 29.74 in 6.2 mi NW 15.0 mph 26.5 mph N/A   Partly Cloudy
5:50 AM 55.4 °F 35.6 °F 47% 29.77 in 6.2 mi NW 17.3 mph - N/A   Partly Cloudy
6:20 AM 55.4 °F 35.6 °F 47% 29.77 in 6.2 mi NW 16.1 mph - N/A   Partly Cloudy
6:50 AM 55.4 °F 37.4 °F 51% 29.77 in 6.2 mi NW 11.5 mph - N/A   Scattered Clouds
7:20 AM 55.4 °F 37.4 °F 51% 29.77 in 6.2 mi NW 11.5 mph - N/A   Scattered Clouds
7:50 AM 55.4 °F 35.6 °F 47% 29.80 in 6.2 mi NW 16.1 mph - N/A   Mostly Cloudy
8:20 AM 55.4 °F 35.6 °F 47% 29.80 in 6.2 mi NW 16.1 mph - N/A   Mostly Cloudy
8:50 AM 57.2 °F 35.6 °F 44% 29.83 in 6.2 mi NW 18.4 mph - N/A   Scattered Clouds
9:20 AM 57.2 °F 35.6 °F 44% 29.83 in 6.2 mi NW 18.4 mph - N/A   Scattered Clouds
9:50 AM 57.2 °F 35.6 °F 44% 29.86 in 6.2 mi NW 18.4 mph - N/A   Scattered Clouds
10:20 AM 57.2 °F 35.6 °F 44% 29.86 in 6.2 mi NW 17.3 mph - N/A   Scattered Clouds
10:50 AM 57.2 °F 35.6 °F 44% 29.86 in 6.2 mi NW 18.4 mph - N/A   Scattered Clouds
11:20 AM 57.2 °F 35.6 °F 44% 29.86 in 6.2 mi NW 21.9 mph - N/A   Scattered Clouds
11:50 AM 59.0 °F 35.6 °F 42% 29.86 in 6.2 mi NW 19.6 mph - N/A   Scattered Clouds
12:20 PM 59.0 °F 35.6 °F 42% 29.86 in 6.2 mi NW 19.6 mph - N/A   Scattered Clouds
12:50 PM 57.2 °F 37.4 °F 48% 29.89 in 6.2 mi NW 18.4 mph - N/A   Scattered Clouds
1:20 PM 57.2 °F 37.4 °F 48% 29.89 in 6.2 mi NW 19.6 mph - N/A   Scattered Clouds
1:50 PM 59.0 °F 37.4 °F 45% 29.89 in 6.2 mi NW 16.1 mph - N/A   Scattered Clouds
2:20 PM 59.0 °F 37.4 °F 45% 29.89 in 6.2 mi NNW 12.7 mph - N/A   Scattered Clouds
2:50 PM 59.0 °F 37.4 °F 45% 29.89 in 6.2 mi North 11.5 mph - N/A   Scattered Clouds
3:50 PM 60.8 °F 37.4 °F 42% 29.89 in 6.2 mi NW 16.1 mph - N/A   Partly Cloudy
4:20 PM 59.0 °F 37.4 °F 45% 29.89 in 6.2 mi NW 16.1 mph - N/A   Partly Cloudy
4:50 PM 59.0 °F 37.4 °F 45% 29.89 in 6.2 mi NW 12.7 mph - N/A   Partly Cloudy
5:20 PM 59.0 °F 39.2 °F 48% 29.89 in 6.2 mi NNW 6.9 mph - N/A   Partly Cloudy
5:50 PM 57.2 °F 41.0 °F 55% 29.89 in 6.2 mi NW 11.5 mph - N/A   Partly Cloudy
6:20 PM 57.2 °F 41.0 °F 55% 29.92 in 6.2 mi NW 10.4 mph - N/A   Partly Cloudy
6:50 PM 55.4 °F 44.6 °F 67% 29.92 in 6.2 mi NNW 5.8 mph - N/A   Partly Cloudy
7:20 PM 55.4 °F 44.6 °F 67% 29.92 in 6.2 mi NNW 4.6 mph - N/A   Partly Cloudy
7:50 PM 53.6 °F 41.0 °F 62% 29.95 in 6.2 mi Calm Calm - N/A   Partly Cloudy
8:50 PM 51.8 °F 39.2 °F 62% 29.98 in - NW 4.6 mph - N/A   Clear
9:50 PM 51.8 °F 39.2 °F 62% 29.98 in - NW 4.6 mph - N/A   Clear
10:50 PM 51.8 °F 41.0 °F 67% 29.98 in - NW 4.6 mph - N/A   Clear
11:50 PM 50.0 °F 41.0 °F 71% 29.98 in - NW 5.8 mph - N/A   Clear